Weather History for Prescott, AZ

Change the Weather History Date:

Monday, August 12, 2013

  Actual Average Record
Temperature  
Mean Temperature 76 °F 74 °F  
Max Temperature 91 °F 87 °F 99 °F (1996)
Min Temperature 60 °F 61 °F 49 °F (1974)
Degree Days  
Heating Degree Days 0    
Month to date heating degree days 0  
Since 1 July heating degree days 0  
Cooling Degree Days 11    
Month to date cooling degree days 119  
Year to date cooling degree days 851  
Growing Degree Days 26 (Base 50)    
Moisture  
Dew Point 39 °F    
Average Humidity 29    
Maximum Humidity 60    
Minimum Humidity 14    
Precipitation  
Precipitation 0.00 in 0.08 in 1.84 in (1948)
Month to date precipitation 0.01 1.08  
Year to date precipitation 5.84 8.12  
Sea Level Pressure  
Sea Level Pressure 29.89 in    
Wind  
Wind Speed 7 mph (SSW)    
Max Wind Speed 17 mph    
Max Gust Speed 29 mph    
Visibility 10 miles    
Events      
T = Trace of Precipitation, MM = Missing Value Source: NWS Daily Summary

Daily Weather History Graph

Daily Weather History Graph

Search for Another Location

Airport:

Trip Planner

Search our weather history database for the weather conditions in past years. The results will help you decide how hot, cold, wet, or windy it might be!

Date:

Astronomy

Aug. 12, 2013 Rise Set
Actual Time 5:48 AM MST 7:20 PM MST
Civil Twilight 5:21 AM MST 7:47 PM MST
Nautical Twilight 4:49 AM MST 8:19 PM MST
Astronomical Twilight 4:15 AM MST 8:53 PM MST
Moon 11:25 AM MST (8/12) 10:34 PM MST (8/12)
Length of Visible Light 14h 25m
Length of Day
13h 32m
Waxing Crescent, 32% of the Moon is Illuminated
Aug 12
Waxing Crescent
Aug 14
First Quarter
Aug 20
Full
Aug 28
Last Quarter
Sep 5
New

Hourly Weather History & Observations

Time (MST) Temp. Dew Point Humidity Pressure Visibility Wind Dir Wind Speed Gust Speed Precip Events Conditions
12:53 AM 61.0 °F 32.0 °F 34% 29.90 in 10.0 mi South 6.9 mph - N/A   Clear
1:53 AM 63.0 °F 32.0 °F 31% 29.91 in 10.0 mi SSW 6.9 mph - N/A   Clear
2:53 AM 63.0 °F 37.0 °F 38% 29.90 in 10.0 mi SSW 8.1 mph - N/A   Clear
3:53 AM 64.0 °F 43.0 °F 46% 29.89 in 10.0 mi SSW 4.6 mph - N/A   Clear
4:53 AM 62.1 °F 46.0 °F 56% 29.89 in 10.0 mi Calm Calm - N/A   Clear
5:53 AM 60.1 °F 44.1 °F 55% 29.92 in 10.0 mi Calm Calm - N/A   Clear
6:53 AM 63.0 °F 48.0 °F 58% 29.93 in 10.0 mi Calm Calm - N/A   Clear
7:53 AM 70.0 °F 48.0 °F 46% 29.93 in 10.0 mi Calm Calm - N/A   Clear
8:53 AM 78.1 °F 50.0 °F 37% 29.92 in 10.0 mi East 5.8 mph - N/A   Clear
9:53 AM 82.9 °F 46.0 °F 27% 29.90 in 10.0 mi East 4.6 mph 16.1 mph N/A   Scattered Clouds
10:53 AM 84.9 °F 37.0 °F 18% 29.93 in 10.0 mi WSW 5.8 mph - N/A   Scattered Clouds
11:53 AM 84.9 °F 39.0 °F 20% 29.92 in 10.0 mi South 8.1 mph - N/A   Scattered Clouds
12:53 PM 87.1 °F 39.0 °F 18% 29.90 in 10.0 mi SE 9.2 mph - N/A   Scattered Clouds
1:53 PM 89.1 °F 35.1 °F 15% 29.87 in 10.0 mi SW 12.7 mph - N/A   Mostly Cloudy
2:53 PM 91.0 °F 36.0 °F 14% 29.85 in 10.0 mi WSW 12.7 mph 17.3 mph N/A   Mostly Cloudy
3:53 PM 88.0 °F 37.0 °F 16% 29.84 in 10.0 mi SW 8.1 mph - N/A   Scattered Clouds
4:53 PM 88.0 °F 37.0 °F 16% 29.84 in 10.0 mi South 9.2 mph - N/A   Scattered Clouds
5:53 PM 84.9 °F 39.0 °F 20% 29.86 in 10.0 mi SW 11.5 mph - N/A   Scattered Clouds
6:53 PM 84.0 °F 39.0 °F 20% 29.86 in 10.0 mi SSW 9.2 mph - N/A   Partly Cloudy
7:53 PM 80.1 °F 34.0 °F 19% 29.86 in 10.0 mi SW 6.9 mph - N/A   Clear
8:53 PM 75.9 °F 35.1 °F 23% 29.88 in 10.0 mi SSW 9.2 mph - N/A   Clear
9:53 PM 73.0 °F 34.0 °F 24% 29.88 in 10.0 mi SSW 10.4 mph - N/A   Clear
10:53 PM 71.1 °F 33.1 °F 25% 29.89 in 10.0 mi South 9.2 mph - N/A   Clear
11:53 PM 70.0 °F 30.9 °F 24% 29.90 in 10.0 mi South 8.1 mph - N/A   Clear